TimeEDT,TemperatureF,Dew PointF,Humidity,Sea Level PressureIn,VisibilityMPH,Wind Direction,Wind SpeedMPH,Gust SpeedMPH,PrecipitationIn,Events,Conditions,WindDirDegrees,DateUTC
12:53 AM,42.1,39.9,92,29.95,7.0,South,5.8,-,N/A,,Clear,190,2014-03-20 04:53:00
1:45 AM,37.4,37.4,100,29.97,1.5,NNE,3.5,-,N/A,,Clear,20,2014-03-20 05:45:00
1:53 AM,39.0,37.9,96,29.94,1.2,Calm,Calm,-,N/A,,Clear,0,2014-03-20 05:53:00
2:12 AM,41.0,39.2,93,29.96,3.0,Calm,Calm,-,N/A,,Clear,0,2014-03-20 06:12:00
2:53 AM,37.0,36.0,96,29.95,2.5,Calm,Calm,-,N/A,,Clear,0,2014-03-20 06:53:00
3:08 AM,39.2,37.4,93,29.96,6.0,Calm,Calm,-,N/A,,Clear,0,2014-03-20 07:08:00
3:53 AM,39.0,37.0,93,29.93,5.0,North,4.6,-,N/A,,Clear,350,2014-03-20 07:53:00
4:53 AM,39.0,37.0,93,29.94,5.0,NNW,3.5,-,N/A,,Clear,340,2014-03-20 08:53:00
5:53 AM,39.0,36.0,89,29.95,9.0,WNW,4.6,-,N/A,,Clear,300,2014-03-20 09:53:00
6:53 AM,43.0,37.0,80,29.96,10.0,WNW,5.8,-,N/A,,Clear,290,2014-03-20 10:53:00
7:53 AM,45.0,35.1,68,29.99,10.0,WNW,4.6,-,N/A,,Clear,300,2014-03-20 11:53:00
8:53 AM,48.0,37.9,68,29.99,10.0,SW,3.5,-,N/A,,Clear,230,2014-03-20 12:53:00
9:53 AM,52.0,36.0,54,29.99,10.0,WNW,5.8,-,N/A,,Clear,300,2014-03-20 13:53:00
10:53 AM,55.0,28.9,37,30.01,10.0,West,9.2,-,N/A,,Clear,280,2014-03-20 14:53:00
11:53 AM,57.9,25.0,28,30.01,10.0,West,11.5,-,N/A,,Clear,270,2014-03-20 15:53:00
12:53 PM,60.1,26.1,27,29.99,10.0,SW,8.1,-,N/A,,Clear,220,2014-03-20 16:53:00
1:53 PM,62.1,17.1,18,29.97,10.0,WNW,9.2,-,N/A,,Clear,300,2014-03-20 17:53:00
2:53 PM,64.9,14.0,14,29.94,10.0,WNW,15.0,24.2,N/A,,Clear,290,2014-03-20 18:53:00
3:08 PM,64.4,10.4,12,29.97,10.0,West,12.7,21.9,N/A,,Clear,270,2014-03-20 19:08:00
3:53 PM,64.0,10.9,13,29.94,10.0,West,10.4,18.4,N/A,,Clear,280,2014-03-20 19:53:00
4:53 PM,64.0,8.1,11,29.94,10.0,WNW,11.5,21.9,N/A,,Clear,290,2014-03-20 20:53:00
5:53 PM,63.0,8.1,11,29.94,10.0,WNW,12.7,18.4,N/A,,Clear,290,2014-03-20 21:53:00
6:53 PM,61.0,12.9,15,29.95,10.0,NW,6.9,-,N/A,,Clear,310,2014-03-20 22:53:00
7:53 PM,55.9,15.1,20,29.96,10.0,WNW,5.8,-,N/A,,Clear,300,2014-03-20 23:53:00
8:53 PM,54.0,16.0,22,29.98,10.0,NNW,5.8,-,N/A,,Clear,330,2014-03-21 00:53:00
9:53 PM,51.1,17.1,26,30.01,10.0,NW,5.8,-,N/A,,Clear,320,2014-03-21 01:53:00
10:53 PM,50.0,18.0,28,30.00,10.0,NNW,9.2,-,N/A,,Clear,330,2014-03-21 02:53:00
11:53 PM,48.9,18.0,29,30.03,10.0,NW,4.6,-,N/A,,Clear,320,2014-03-21 03:53:00